Location: Unspecified
(50.1109°N, 0.0000°E)
Time: 09:40:23
(UTC+00:00)

IRS-1D - Visible Passes

Search period start: 04 April 2026 00:00
Search period end: 14 April 2026 00:00
Orbit: 735 x 812 km, 98.8° (Epoch: 28 March)

Date Brightness Start Highest point End Pass type
(mag) Time Alt. Az. Time Alt. Az. Time Alt. Az.
4 Apr 5.2 04:46:29 10° NNE 04:51:03 36° E 04:55:39 10° SSE visible
5 Apr 6.2 04:12:51 10° NE 04:16:21 19° E 04:19:53 10° SE visible
7 Apr 5.4 04:42:32 10° NNE 04:47:02 33° E 04:51:34 10° SSE visible
8 Apr 6.3 04:09:01 10° NE 04:12:20 18° E 04:15:40 10° SE visible
10 Apr 5.6 04:38:36 10° NNE 04:43:02 31° E 04:47:30 10° SSE visible
11 Apr 6.3 04:05:11 10° NE 04:08:18 16° E 04:11:26 10° SE visible
13 Apr 5.7 04:34:40 10° NE 04:39:00 28° E 04:43:24 10° SSE visible
